User: anonymous   Login
Location: Quebec
(46.8000°N, 71.2500°W)
Time: 18:32:13
(UTC-04:00)
Language:

CZ-4B R/B - Orbit

View from above orbital plane
View from above orbital plane
View from above satellite
View from above satellite

Ground track
Ground track

The orbit data is extracted from the following two-line orbital elements,

1 29093U 06015B   18109.91330557 +.00002313 +00000-0 +53347-4 0  9992
2 29093 097.5199 234.1781 0058934 293.9599 065.5483 15.41925894664663
Epoch (UTC): 19 April 2018 21:55:09
Eccentricity: 0.0058934
inclination: 97.5199°
perigee height: 400 km
apogee height: 480 km
right ascension of ascending node: 234.1781°
argument of perigee: 293.9599°
revolutions per day: 15.41925894
mean anomaly at epoch: 65.5483°
orbit number at epoch: 66466

The dashed part of the orbit path shows where the satellite is in the earth's shadow,  

DLR